Location: Unspecified
(0.0000°N, 0.0000°E)
Time: 12:16:01
(UTC+02:00)

ATLAS 2AS CENTAUR R/B - Visible Passes

Search period start: 31 August 2014 00:00
Search period end: 10 September 2014 00:00
Orbit: 919 x 1293 km, 63.7° (Epoch: 27 August)

Date Brightness Start Highest point End Pass type
(mag) Time Alt. Az. Time Alt. Az. Time Alt. Az.
31 Aug 4.6 21:42:39 10° NNE 21:44:49 16° NE 21:44:49 16° NE visible
31 Aug 5.3 23:31:31 10° NW 23:32:19 13° NW 23:32:19 13° NW visible
01 Sep 4.4 22:46:28 10° NNW 22:49:43 28° NNW 22:49:43 28° NNW visible
02 Sep 3.6 22:02:03 10° N 22:07:15 40° NNE 22:07:15 40° NNE visible
03 Sep 3.7 21:18:18 10° N 21:24:47 29° ENE 21:24:54 29° ENE visible
03 Sep 4.6 23:08:48 10° NW 23:12:25 25° WNW 23:12:25 25° WNW visible
04 Sep 4.3 20:35:47 10° NNE 20:39:57 15° ENE 20:42:42 13° E visible
04 Sep 3.2 22:23:20 10° NNW 22:30:14 60° W 22:30:14 60° W visible
05 Sep 2.7 21:38:32 10° NNW 21:46:16 75° ENE 21:48:12 52° SE visible
05 Sep 5.4 23:34:48 10° W 23:35:45 11° WSW 23:35:45 11° WSW visible
06 Sep 3.3 20:54:22 10° N 21:01:34 42° ENE 21:06:21 19° SE visible
06 Sep 4.6 22:46:28 10° WNW 22:52:10 23° WSW 22:53:54 21° SW visible
07 Sep 4.0 20:11:00 10° NNE 20:16:46 23° ENE 20:22:14 10° ESE visible
07 Sep 3.8 22:00:26 10° NW 22:07:34 43° WSW 22:12:15 19° S visible
08 Sep 3.0 21:15:15 10° NNW 21:22:58 79° WSW 21:30:03 10° SSE visible
09 Sep 3.0 20:30:42 10° N 20:38:18 59° ENE 20:45:18 10° SE visible
09 Sep 5.3 22:24:47 10° WNW 22:28:51 15° WSW 22:32:46 10° SW visible
